Location: *
(32.8667°N, 13.1833°E)
Time: 00:31:04
(UTC+00:00)

Cosmos 2346 Rocket - Pass Details

Date: 18 July 2019
Orbit: 936 x 981 km, 82.9° (Epoch: 24 August)

Event Time Altitude Azimuth Distance (km) Brightness Sun altitude
Rises 18:49:21 0° 355° (N) 3,604 8.0 -7.1°
Reaches altitude 10° 18:51:51 10° 356° (N) 2,654 7.3 -7.6°
Maximum altitude 18:57:55 83° 84° (E) 946 4.4 -8.7°
Drops below altitude 10° 19:03:56 10° 173° (S) 2,639 6.4 -9.7°
Sets 19:06:25 0° 174° (S) 3,582 7.1 -10.2°
